KG6SIB Weather Reports


time (UTC)temp
F
wind
direction
speed
knots
gust
knots
rain 1hr
in
rain 24hr
in
rain mn
in
humidity
%
barometer
mb
20260902100244 51 51 4.3 7.8 0.00 0.00 0.00 37 1018.3
20260902095754 51 59 7.8 7.8 0.00 0.00 0.00 37 1018.3
20260902095254 51 61 5.2 6.1 0.00 0.00 0.00 37 1018.3
20260902093724 52 69 3.5 7.8 0.00 0.00 0.00 37 1018.7
20260902093254 52 57 5.2 7.0 0.00 0.00 0.00 37 1018.6
20260902092754 52 59 6.1 7.0 0.00 0.00 0.00 37 1018.7
20260902091754 52 64 2.6 7.0 0.00 0.00 0.00 37 1018.7
20260902091254 52 45 4.3 7.0 0.00 0.00 0.00 37 1018.7
20260902090754 52 58 2.6 7.0 0.00 0.00 0.00 37 1018.7
20260902085754 52 44 5.2 7.0 0.00 0.00 0.00 37 1018.9
20260902085254 52 78 4.3 6.1 0.00 0.00 0.00 38 1019.0
20260902084753 52 74 6.1 6.1 0.00 0.00 0.00 38 1019.0
20260902084253 52 59 3.5 6.1 0.00 0.00 0.00 38 1019.0
20260902083253 52 71 4.3 6.1 0.00 0.00 0.00 38 1019.0
20260902082753 52 62 3.5 6.1 0.00 0.00 0.00 39 1019.0
20260902082253 52 63 4.3 6.1 0.00 0.00 0.00 39 1019.0
20260902081753 52 51 2.6 7.0 0.00 0.00 0.00 39 1019.1
20260902080753 52 40 2.6 6.1 0.00 0.00 0.00 40 1019.1
20260902080252 52 68 1.7 6.1 0.00 0.00 0.00 40 1019.0
20260902075252 52 71 4.3 7.0 0.00 0.00 0.00 40 1018.8
20260902074752 52 59 3.5 7.0 0.00 0.00 0.00 40 1018.8
20260902074253 52 38 4.3 7.0 0.00 0.00 0.00 40 1018.7
20260902073752 52 64 2.6 7.0 0.00 0.00 0.00 41 1018.7
20260902072752 52 44 3.5 6.1 0.00 0.00 0.00 40 1018.7
20260902072252 52 45 3.5 7.0 0.00 0.00 0.00 40 1018.6
20260902071752 52 65 4.3 7.0 0.00 0.00 0.00 40 1018.6
20260902071252 52 57 3.5 7.0 0.00 0.00 0.00 40 1018.6
20260902070752 52 78 4.3 7.0 0.00 0.00 0.00 40 1018.6
20260902070252 52 57 3.5 7.8 0.00 0.00 0.00 40 1018.5
20260902065252 52 55 5.2 7.8 0.00 0.00 0.00 40 1018.4
20260902064752 52 74 4.3 7.8 0.00 0.00 0.00 40 1018.3
20260902064252 52 59 6.1 7.8 0.00 0.00 0.00 41 1018.3
20260902063752 52 61 4.3 7.8 0.00 0.00 0.00 41 1018.3
20260902062741 52 57 3.5 7.0 0.00 0.00 0.00 41 1018.2
20260902062252 52 82 3.5 7.0 0.00 0.00 0.00 41 1018.2
20260902061752 52 69 2.6 7.0 0.00 0.00 0.00 41 1018.2
20260902061252 52 59 2.6 7.0 0.00 0.00 0.00 41 1018.1
20260902060752 53 55 3.5 7.8 0.00 0.00 0.00 41 1018.1
20260902060252 53 57 2.6 7.8 0.00 0.00 0.00 41 1018.0
20260902055751 53 67 3.5 7.0 0.00 0.00 0.00 42 1017.9
20260902055251 53 51 5.2 7.0 0.00 0.00 0.00 42 1017.9
20260902054751 53 71 5.2 7.0 0.00 0.00 0.00 43 1018.0
20260902054251 53 52 4.3 6.1 0.00 0.00 0.00 43 1017.9
20260902053751 53 56 2.6 5.2 0.00 0.00 0.00 44 1017.8
20260902052751 54 51 4.3 5.2 0.00 0.00 0.00 45 1017.9
20260902052251 54 63 4.3 7.0 0.00 0.00 0.00 45 1018.0
20260902051751 54 71 2.6 7.0 0.00 0.00 0.00 45 1017.9
20260902051250 54 74 3.5 7.0 0.00 0.00 0.00 46 1017.9
20260902050751 55 57 1.7 7.8 0.00 0.00 0.00 48 1018.2
20260902045750 55 59 1.7 6.1 0.00 0.00 0.00 50 1018.3
20260902045251 55 81 1.7 6.1 0.00 0.00 0.00 52 1018.3
20260902044750 55 61 3.5 6.1 0.00 0.00 0.00 53 1018.3
20260902044250 56 55 3.5 6.1 0.00 0.00 0.00 53 1018.3
20260902043750 56 74 2.6 4.3 0.00 0.00 0.00 56 1018.3
20260902043239 56 76 3.5 5.2 0.00 0.00 0.00 55 1018.2
20260902042250 56 67 2.6 6.1 0.00 0.00 0.00 56 1018.0
20260902041750 57 71 3.5 5.2 0.00 0.00 0.00 56 1018.2
20260902041250 57 61 2.6 5.2 0.00 0.00 0.00 57 1018.0
20260902040750 57 66 3.5 5.2 0.00 0.00 0.00 57 1017.9
20260902040250 58 67 2.6 4.3 0.00 0.00 0.00 56 1017.8
20260902035750 58 58 2.6 3.5 0.00 0.00 0.00 56 1017.2
20260902035249 59 54 3.5 3.5 0.00 0.00 0.00 55 1017.3
20260902034749 59 44 1.7 3.5 0.00 0.00 0.00 54 1017.3
20260902034249 60 9 2.6 3.5 0.00 0.00 0.00 53 1017.1
20260902033749 61 5 2.6 2.6 0.00 0.00 0.00 52 1017.3
20260902033249 61 360 0.9 2.6 0.00 0.00 0.00 52 1017.4
20260902032749 62 355 0.9 1.7 0.00 0.00 0.00 51 1017.2
20260902032249 63 247 0.0 0.0 0.00 0.00 0.00 50 1017.5
20260902030749 65 248 0.0 0.0 0.00 0.00 0.00 49 1017.5
20260902025749 66 248 0.0 0.0 0.00 0.00 0.00 48 1016.6
20260902025249 66 248 0.0 0.0 0.00 0.00 0.00 47 1016.4
20260902024248 67 248 0.0 0.0 0.00 0.00 0.00 46 1016.7
20260902023749 68 248 0.0 0.9 0.00 0.00 0.00 44 1016.7
20260902023249 68 248 0.0 3.5 0.00 0.00 0.00 43 1016.6
20260902022749 68 248 0.0 3.5 0.00 0.00 0.00 43 1016.5
20260902022248 69 241 0.9 3.5 0.00 0.00 0.00 43 1016.7
20260902021748 69 242 2.6 4.3 0.00 0.00 0.00 44 1016.6
20260902021249 69 242 2.6 5.2 0.00 0.00 0.00 44 1016.7
20260902020748 70 226 2.6 5.2 0.00 0.00 0.00 44 1016.7
20260902020248 70 234 0.9 4.3 0.00 0.00 0.00 44 1016.8
20260902015748 71 233 2.6 6.1 0.00 0.00 0.00 43 1015.4
20260902015248 71 236 1.7 6.1 0.00 0.00 0.00 41 1015.5
20260902014748 72 229 0.9 6.1 0.00 0.00 0.00 41 1015.7
20260902014248 72 226 4.3 7.0 0.00 0.00 0.00 41 1015.6
20260902013748 73 239 3.5 7.0 0.00 0.00 0.00 40 1015.7
20260902013248 73 232 2.6 7.0 0.00 0.00 0.00 38 1015.6
20260902012748 74 240 1.7 7.0 0.00 0.00 0.00 39 1015.7
20260902012247 74 246 4.3 8.7 0.00 0.00 0.00 39 1015.8
20260902011747 75 240 0.0 8.7 0.00 0.00 0.00 39 1015.8
20260902010747 75 244 3.5 7.8 0.00 0.00 0.00 40 1015.9
20260902010248 76 213 0.9 8.7 0.00 0.00 0.00 40 1016.1
20260902005748 76 244 0.9 9.6 0.00 0.00 0.00 40 1016.0
20260902005247 77 242 7.0 9.6 0.00 0.00 0.00 39 1016.0
20260902004747 77 236 8.7 10.4 0.00 0.00 0.00 39 1016.0
20260902004247 78 236 1.7 10.4 0.00 0.00 0.00 39 1016.1
20260902003247 78 269 6.1 8.7 0.00 0.00 0.00 38 1016.0
20260902002747 79 243 3.5 10.4 0.00 0.00 0.00 38 1016.1
20260902002247 79 252 7.0 10.4 0.00 0.00 0.00 38 1016.1
20260902001747 80 231 4.3 10.4 0.00 0.00 0.00 38 1016.4
20260902001247 80 209 2.6 10.4 0.00 0.00 0.00 38 1016.4
20260902000249 81 259 2.6 12.2 0.00 0.00 0.00 37 1016.6
20260901235747 81 252 1.7 12.2 0.00 0.00 0.00 37 1016.4
20260901235246 81 212 6.1 8.7 0.00 0.00 0.00 36 1016.4
20260901234746 82 189 7.0 9.6 0.00 0.00 0.00 36 1016.6
20260901234247 83 234 4.3 9.6 0.00 0.00 0.00 35 1016.7
20260901233746 83 254 1.7 8.7 0.00 0.00 0.00 35 1016.8
20260901233246 83 275 6.1 10.4 0.00 0.00 0.00 35 1016.9
20260901232746 83 203 3.5 10.4 0.00 0.00 0.00 35 1017.0
20260901231746 83 248 3.5 11.3 0.00 0.00 0.00 34 1017.0
20260901230746 84 227 7.0 12.2 0.00 0.00 0.00 34 1017.1
20260901230246 85 223 5.2 12.2 0.00 0.00 0.00 34 1017.2
20260901225746 85 227 3.5 11.3 0.00 0.00 0.00 33 1017.4
20260901225246 85 232 4.3 10.4 0.00 0.00 0.00 33 1017.5
20260901224746 85 230 7.8 12.2 0.00 0.00 0.00 33 1017.6
20260901224246 85 236 1.7 12.2 0.00 0.00 0.00 34 1017.5
20260901223746 85 230 5.2 10.4 0.00 0.00 0.00 33 1017.6
20260901223235 85 240 5.2 10.4 0.00 0.00 0.00 32 1017.5
20260901222746 85 240 10.4 10.4 0.00 0.00 0.00 30 1017.6
20260901222246 86 215 6.1 13.0 0.00 0.00 0.00 30 1017.7
20260901221746 86 253 6.1 13.0 0.00 0.00 0.00 29 1017.7
20260901220745 86 238 8.7 13.0 0.00 0.00 0.00 28 1017.7
20260901220245 86 337 1.7 13.0 0.00 0.00 0.00 27 1017.6
20260901215746 87 236 12.2 12.2 0.00 0.00 0.00 26 1018.0
20260901215246 87 223 5.2 12.2 0.00 0.00 0.00 26 1018.1
20260901214745 86 248 3.5 13.0 0.00 0.00 0.00 26 1017.8
20260901214245 87 193 7.0 13.0 0.00 0.00 0.00 24 1018.1
20260901213745 87 233 8.7 11.3 0.00 0.00 0.00 24 1018.1
20260901212745 88 189 4.3 11.3 0.00 0.00 0.00 23 1018.1
20260901212245 88 215 7.0 10.4 0.00 0.00 0.00 24 1018.2
20260901211745 88 201 4.3 10.4 0.00 0.00 0.00 24 1018.2
20260901211245 88 259 3.5 12.2 0.00 0.00 0.00 24 1018.2
20260901210745 88 185 2.6 12.2 0.00 0.00 0.00 23 1018.2
20260901210245 88 211 3.5 12.2 0.00 0.00 0.00 24 1018.2
20260901205744 87 250 4.3 12.2 0.00 0.00 0.00 25 1018.3
20260901204744 87 217 1.7 12.2 0.00 0.00 0.00 26 1018.2
20260901203744 88 232 4.3 11.3 0.00 0.00 0.00 26 1018.3
20260901203233 88 248 1.7 10.4 0.00 0.00 0.00 26 1018.3
20260901202744 88 208 3.5 11.3 0.00 0.00 0.00 26 1018.3
20260901202244 88 215 4.3 11.3 0.00 0.00 0.00 27 1018.3
20260901201744 87 211 1.7 10.4 0.00 0.00 0.00 27 1018.4
20260901201244 87 262 7.0 11.3 0.00 0.00 0.00 27 1018.6
20260901200744 87 249 3.5 11.3 0.00 0.00 0.00 26 1018.5
20260901200244 87 227 0.9 10.4 0.00 0.00 0.00 25 1018.5
20260901195744 87 232 0.0 7.8 0.00 0.00 0.00 24 1018.5
20260901195244 87 239 4.3 9.6 0.00 0.00 0.00 24 1018.4
20260901194744 86 257 0.9 9.6 0.00 0.00 0.00 24 1018.5
20260901194244 85 219 0.9 9.6 0.00 0.00 0.00 25 1018.4
20260901193743 85 228 0.9 9.6 0.00 0.00 0.00 24 1018.3
20260901193243 85 227 3.5 12.2 0.00 0.00 0.00 24 1018.4
20260901192744 86 236 9.6 12.2 0.00 0.00 0.00 23 1018.9
20260901192244 85 248 7.8 12.2 0.00 0.00 0.00 25 1018.6
20260901191732 85 254 3.5 11.3 0.00 0.00 0.00 25 1018.6
20260901191243 85 225 1.7 10.4 0.00 0.00 0.00 24 1018.5
20260901190743 85 240 10.4 10.4 0.00 0.00 0.00 26 1018.7
20260901190243 84 223 1.7 7.8 0.00 0.00 0.00 25 1018.6
20260901185243 84 236 2.6 11.3 0.00 0.00 0.00 27 1018.9
20260901184743 85 259 7.0 11.3 0.00 0.00 0.00 26 1019.1
20260901184243 84 220 5.2 8.7 0.00 0.00 0.00 26 1019.0
20260901183243 84 234 6.1 9.6 0.00 0.00 0.00 25 1019.0
20260901182743 84 229 5.2 8.7 0.00 0.00 0.00 25 1018.9
20260901181742 83 221 1.7 9.6 0.00 0.00 0.00 24 1019.0
20260901181243 83 197 2.6 7.0 0.00 0.00 0.00 23 1019.0
20260901180243 83 234 5.2 9.6 0.00 0.00 0.00 23 1019.1
20260901175743 84 223 0.9 10.4 0.00 0.00 0.00 24 1019.3
20260901175242 84 246 6.1 10.4 0.00 0.00 0.00 22 1019.3
20260901174742 83 263 0.0 5.2 0.00 0.00 0.00 17 1018.9
20260901174243 82 300 0.0 4.3 0.00 0.00 0.00 17 1018.9
20260901173743 83 263 2.6 3.5 0.00 0.00 0.00 16 1018.9
20260901173243 83 269 2.6 7.0 0.00 0.00 0.00 16 1018.8
20260901172742 83 317 0.9 7.0 0.00 0.00 0.00 16 1018.7
20260901172242 83 333 0.9 4.3 0.00 0.00 0.00 16 1018.7
20260901171742 83 262 2.6 6.1 0.00 0.00 0.00 15 1018.6
20260901171242 83 303 3.5 6.1 0.00 0.00 0.00 16 1018.6
20260901170242 83 242 1.7 4.3 0.00 0.00 0.00 15 1018.3
20260901165741 83 278 0.0 4.3 0.00 0.00 0.00 15 1018.5
20260901164742 81 249 1.7 7.0 0.00 0.00 0.00 16 1018.2
20260901164242 81 205 0.9 5.2 0.00 0.00 0.00 16 1018.2
20260901163742 80 178 2.6 7.8 0.00 0.00 0.00 17 1018.0
20260901162742 79 257 2.6 7.8 0.00 0.00 0.00 16 1017.9
20260901162242 79 246 7.8 7.8 0.00 0.00 0.00 17 1017.7
20260901161741 78 262 5.2 7.0 0.00 0.00 0.00 17 1017.4
20260901161241 77 245 0.9 7.0 0.00 0.00 0.00 17 1017.3
20260901160741 77 253 3.5 7.0 0.00 0.00 0.00 17 1017.3
20260901160241 77 247 0.9 7.0 0.00 0.00 0.00 17 1017.3
20260901155741 77 254 2.6 7.8 0.00 0.00 0.00 17 1017.3
20260901155241 77 269 0.9 7.8 0.00 0.00 0.00 18 1017.2
20260901154741 76 248 4.3 7.0 0.00 0.00 0.00 17 1017.1
20260901153241 76 229 2.6 5.2 0.00 0.00 0.00 18 1017.0
20260901152740 75 230 0.0 3.5 0.00 0.00 0.00 19 1016.9
20260901152241 74 60 0.0 1.7 0.00 0.00 0.00 21 1016.9
20260901151740 73 51 0.0 0.9 0.00 0.00 0.00 22 1016.6
20260901151241 72 51 0.0 1.7 0.00 0.00 0.00 25 1016.6
20260901150240 69 51 0.9 2.6 0.00 0.00 0.00 27 1016.2
20260901145740 67 50 0.9 3.5 0.00 0.00 0.00 29 1016.6
20260901145240 65 54 1.7 3.5 0.00 0.00 0.00 30 1016.3
20260901144740 64 51 0.9 3.5 0.00 0.00 0.00 31 1016.1
20260901144240 63 57 0.9 3.5 0.00 0.00 0.00 32 1016.2
20260901143740 62 55 2.6 3.5 0.00 0.00 0.00 33 1015.9
20260901143240 61 47 1.7 4.3 0.00 0.00 0.00 33 1015.8
20260901142240 59 53 2.6 7.0 0.00 0.00 0.00 34 1015.7
20260901141240 57 73 6.1 7.0 0.00 0.00 0.00 35 1015.5
20260901140740 56 72 3.5 7.0 0.00 0.00 0.00 35 1015.1
20260901140240 56 78 4.3 7.0 0.00 0.00 0.00 35 1015.0
20260901135739 55 46 3.5 7.0 0.00 0.00 0.00 35 1015.7
20260901134741 55 46 4.3 7.0 0.00 0.00 0.00 35 1015.7
20260901134240 55 89 3.5 5.2 0.00 0.00 0.00 35 1015.7
20260901133239 55 38 2.6 5.2 0.00 0.00 0.00 36 1015.6
20260901132739 54 51 2.6 5.2 0.00 0.00 0.00 36 1015.6
20260901132239 55 74 2.6 6.1 0.00 0.00 0.00 36 1015.5
20260901131239 55 74 4.3 7.0 0.00 0.00 0.00 36 1015.7
20260901130739 55 40 3.5 7.0 0.00 0.00 0.00 36 1015.6
20260901125739 54 62 3.5 7.0 0.00 0.00 0.00 36 1016.3
20260901125239 54 65 4.3 7.0 0.00 0.00 0.00 37 1016.3
20260901123238 54 90 2.6 7.0 0.00 0.00 0.00 38 1016.2
20260901122738 54 63 4.3 7.0 0.00 0.00 0.00 38 1016.2
20260901122238 54 65 4.3 7.0 0.00 0.00 0.00 38 1016.2
20260901121727 54 72 2.6 7.0 0.00 0.00 0.00 38 1016.1
20260901120739 54 82 3.5 7.0 0.00 0.00 0.00 38 1016.0
20260901120238 55 83 3.5 7.0 0.00 0.00 0.00 39 1016.2
20260901115738 55 80 4.3 7.8 0.00 0.00 0.00 39 1016.6
20260901115238 55 65 5.2 7.8 0.00 0.00 0.00 40 1016.7
20260901113738 55 75 4.3 7.0 0.00 0.00 0.00 40 1016.6
20260901113238 55 71 3.5 7.0 0.00 0.00 0.00 41 1016.5
20260901112738 55 59 5.2 7.0 0.00 0.00 0.00 41 1016.5
20260901111738 55 55 3.5 6.1 0.00 0.00 0.00 42 1016.5
20260901111238 55 46 3.5 7.0 0.00 0.00 0.00 42 1016.5
20260901110737 55 78 4.3 7.0 0.00 0.00 0.00 43 1016.5
20260901110237 55 82 2.6 7.0 0.00 0.00 0.00 43 1016.5
20260901105737 55 57 2.6 7.0 0.00 0.00 0.00 45 1016.8
20260901105237 55 59 3.5 7.0 0.00 0.00 0.00 45 1016.8
20260901104737 55 58 2.6 5.2 0.00 0.00 0.00 46 1016.8
20260901103737 55 55 3.5 7.0 0.00 0.00 0.00 44 1016.8
20260901103237 55 66 2.6 7.0 0.00 0.00 0.00 45 1016.9
20260901102237 55 71 3.5 6.1 0.00 0.00 0.00 43 1016.9
20260901101737 55 39 3.5 6.1 0.00 0.00 0.00 43 1016.9
20260901101237 55 45 3.5 6.1 0.00 0.00 0.00 43 1017.0
20260901100737 55 51 3.5 6.1 0.00 0.00 0.00 43 1017.0